Home   Weather   Kalispell   Past weeks
Flag for USA

Past Weather in Kalispell, Montana, USA — Yesterday and Last 2 Weeks

Now
43 °F

Overcast.


Feels Like: 38 °F
Forecast: 55 / 38 °F
Wind: 9 mph from South

Location: Kalispell - Glacier Park International

Current Time: Oct 22, 2019 at 5:44:44 am

Latest Report: Oct 22, 2019 at 4:55 am


Visibility: 10 mi

Pressure: 30.11 "Hg (26.97 "Hg at 902m altitude)

Humidity: 82%

Dew Point: 38 °F

Location of KalispellLocation

Past Weather in Kalispell — Graph

°F

Kalispell Temperature Yesterday

Maximum temperature yesterday: 46 °F (at 12:55 pm)
Minimum temperature yesterday: 36 °F (at 7:55 am)
Average temperature yesterday: 40 °F

High & Low Weather Summary for the Past Weeks

 TemperatureHumidityPressure
High65 °F (Oct 7, 4:55 pm)96% (Oct 20, 6:34 am)30.58 "Hg (Oct 20, 6:34 am)
Low13 °F (Oct 10, 6:55 am)33% (Oct 7, 4:55 pm)29.52 "Hg (Oct 8, 4:55 am)
Average39 °F71%30.01 "Hg
* Reported Oct 7 3:55 am — Oct 22 3:55 am, Kalispell. Weather by CustomWeather, © 2019

Note: Actual official high and low records may vary slightly from our data, if they occured in-between our weather recording intervals... More about our weather records

Advertising

Kalispell Weather History for the Previous 24 Hours

Scroll right to see more
 ConditionsComfort  
Time TempWeatherWind HumidityBarometerVisibility
3:55 am
Tue, Oct 22
42 °FLight rain. Overcast.6 mph85%30.14 "Hg10 mi
2:55 am43 °FOvercast.7 mph79%30.16 "Hg10 mi
1:55 am43 °FOvercast.7 mph79%30.16 "Hg10 mi
12:55 am42 °FOvercast.5 mph82%30.19 "Hg10 mi
11:55 pm
Mon, Oct 21
41 °FOvercast.3 mph82%30.20 "Hg10 mi
10:55 pm40 °FOvercast.3 mph86%30.21 "Hg10 mi
9:55 pm41 °FOvercast.5 mph82%30.22 "Hg10 mi
8:55 pm42 °FOvercast.6 mph79%30.22 "Hg10 mi
7:55 pm42 °FMostly cloudy.7 mph79%30.21 "Hg10 mi
6:55 pm42 °FLight rain. Overcast.3 mph79%30.21 "Hg10 mi
5:55 pm42 °FMostly cloudy.5 mph79%30.22 "Hg10 mi
4:55 pm45 °FMostly cloudy.No wind65%30.21 "Hg10 mi
3:55 pm45 °FOvercast.3 mph60%30.20 "Hg10 mi
2:55 pm46 °FMostly cloudy.9 mph56%30.19 "Hg10 mi
1:55 pm46 °FOvercast.7 mph58%30.14 "Hg10 mi
12:55 pm46 °FPassing clouds.12 mph58%30.13 "Hg10 mi
11:55 am45 °FPartly sunny.7 mph65%30.17 "Hg10 mi
10:55 am41 °FPartly sunny.6 mph82%30.16 "Hg10 mi
9:55 am38 °FMostly cloudy.No wind90%30.16 "Hg10 mi
8:55 am36 °FMostly cloudy.No wind92%30.13 "Hg10 mi
7:55 am36 °FOvercast.No wind92%30.09 "Hg10 mi
6:55 am38 °FMostly cloudy.No wind86%30.07 "Hg10 mi
5:55 am37 °FMostly cloudy.6 mph93%30.03 "Hg10 mi
Weather by CustomWeather, © 2019

See weather overview